DLH694 GMMN-DGAA

Flight info

Callsign DLH694
Flight time 4h 12m
Altitude 39000
Route FOBAC UR722 MAK UM372 BULIS UR866 OG UR983 LIPUS/N0484F400 UA603 LITEX LITEX1B
Aircraft A388/J-SADE2E3FGHIJ3J4J5M1RWXY/LB1D1

Departure

Time 2026-04-30 13:54
Airport Mohammed V International Airport (GMMN)

Arrival

Time 2026-04-30 18:07
Airport Kotoka International Airport (DGAA)
Time Latitude Longitude Altitude Speed Heading
2026-04-30 13:15 33.36848 -7.58253 660 ft 0 kts 162°
2026-04-30 13:48 33.36846 -7.58252 660 ft 2 kts 162°
2026-04-30 13:48 33.36810 -7.58232 660 ft 4 kts 116°
2026-04-30 13:49 33.36781 -7.58157 660 ft 14 kts 142°
2026-04-30 13:49 33.36688 -7.58106 661 ft 16 kts 165°
2026-04-30 13:49 33.36568 -7.58091 662 ft 19 kts 186°
2026-04-30 13:49 33.36430 -7.58125 662 ft 21 kts 177°
2026-04-30 13:50 33.36301 -7.58110 663 ft 11 kts 208°
2026-04-30 13:50 33.36183 -7.58230 663 ft 14 kts 167°
2026-04-30 13:50 33.36077 -7.58198 664 ft 17 kts 165°
2026-04-30 13:51 33.35951 -7.58155 665 ft 20 kts 164°
2026-04-30 13:51 33.35806 -7.58105 666 ft 23 kts 164°
2026-04-30 13:51 33.35645 -7.58051 667 ft 25 kts 164°
2026-04-30 13:51 33.35473 -7.57992 668 ft 27 kts 164°
2026-04-30 13:52 33.35296 -7.57954 669 ft 24 kts 209°
2026-04-30 13:52 33.35225 -7.58128 669 ft 24 kts 254°
2026-04-30 13:52 33.35252 -7.58279 671 ft 15 kts 342°
2026-04-30 13:52 33.35269 -7.58285 671 ft 0 kts 345°
2026-04-30 13:53 33.35312 -7.58299 671 ft 33 kts 345°
2026-04-30 13:54 33.35813 -7.58466 663 ft 111 kts 344°
2026-04-30 13:54 33.36728 -7.58777 661 ft 158 kts 345°
2026-04-30 13:54 33.37833 -7.59189 956 ft 168 kts 344°
2026-04-30 13:54 33.38941 -7.59612 1424 ft 167 kts 346°
2026-04-30 13:55 33.40059 -7.59963 2165 ft 162 kts 346°
2026-04-30 13:55 33.41116 -7.60608 2716 ft 187 kts 315°
2026-04-30 13:55 33.41772 -7.62087 3036 ft 222 kts 281°
2026-04-30 13:55 33.41640 -7.64000 3591 ft 240 kts 251°
2026-04-30 13:56 33.40961 -7.65795 4502 ft 241 kts 243°
2026-04-30 13:56 33.40189 -7.67585 5405 ft 243 kts 243°
2026-04-30 13:56 33.39459 -7.69425 6323 ft 247 kts 245°
2026-04-30 13:56 33.38784 -7.71324 7195 ft 249 kts 247°
2026-04-30 13:57 33.38139 -7.73276 8098 ft 250 kts 248°
2026-04-30 13:57 33.37527 -7.75198 8990 ft 252 kts 249°
2026-04-30 13:57 33.36904 -7.77175 9850 ft 255 kts 249°
2026-04-30 13:57 33.36274 -7.79177 10645 ft 259 kts 249°
2026-04-30 13:58 33.35636 -7.81199 11444 ft 262 kts 249°
2026-04-30 13:58 33.33725 -7.84909 13008 ft 268 kts 223°
2026-04-30 13:58 33.32263 -7.86352 13576 ft 280 kts 219°
2026-04-30 13:59 33.30697 -7.87891 13788 ft 302 kts 220°
2026-04-30 13:59 33.29031 -7.89556 13970 ft 322 kts 220°
2026-04-30 13:59 33.27262 -7.91330 14137 ft 341 kts 220°
2026-04-30 13:59 33.25413 -7.93185 14548 ft 350 kts 220°
2026-04-30 14:00 33.23539 -7.95061 15188 ft 353 kts 221°
2026-04-30 14:00 33.19740 -7.98858 16392 ft 359 kts 221°
2026-04-30 14:00 33.17820 -8.00775 17019 ft 361 kts 221°
2026-04-30 14:01 33.15886 -8.02703 17616 ft 364 kts 221°
2026-04-30 14:01 33.13751 -8.04372 17980 ft 372 kts 208°
2026-04-30 14:01 33.11316 -8.05361 18129 ft 377 kts 194°
2026-04-30 14:01 33.08679 -8.05628 18502 ft 383 kts 185°
2026-04-30 14:02 33.06012 -8.05746 19058 ft 384 kts 186°
2026-04-30 14:02 33.03340 -8.05898 19571 ft 386 kts 186°
2026-04-30 14:02 33.00646 -8.06062 20090 ft 388 kts 186°
2026-04-30 14:02 32.97945 -8.06228 20537 ft 391 kts 186°
2026-04-30 14:03 32.95215 -8.06392 21052 ft 393 kts 186°
2026-04-30 14:03 32.92482 -8.06624 21522 ft 394 kts 191°
2026-04-30 14:03 32.89764 -8.07085 21924 ft 397 kts 191°
2026-04-30 14:03 32.87017 -8.07545 22179 ft 399 kts 191°
2026-04-30 14:04 32.84299 -8.07994 22653 ft 400 kts 191°
2026-04-30 14:04 32.81535 -8.08447 23155 ft 401 kts 191°
2026-04-30 14:04 32.78756 -8.08903 23626 ft 404 kts 191°
2026-04-30 14:04 32.75964 -8.09361 24022 ft 406 kts 191°
2026-04-30 14:05 32.73153 -8.09822 24416 ft 408 kts 191°
2026-04-30 14:05 32.70331 -8.10284 24810 ft 411 kts 191°
2026-04-30 14:05 32.67487 -8.10750 25005 ft 414 kts 191°
2026-04-30 14:05 32.64629 -8.11218 25183 ft 414 kts 191°
2026-04-30 14:06 32.61770 -8.11685 25436 ft 415 kts 191°
2026-04-30 14:06 32.56018 -8.12626 26352 ft 419 kts 191°
2026-04-30 14:07 32.50232 -8.13570 27271 ft 424 kts 190°
2026-04-30 14:07 32.47296 -8.14049 27735 ft 427 kts 190°
2026-04-30 14:07 32.44338 -8.14531 28213 ft 430 kts 190°
2026-04-30 14:08 32.38358 -8.15505 29164 ft 437 kts 190°
2026-04-30 14:08 32.35336 -8.15997 29633 ft 440 kts 190°
2026-04-30 14:08 32.29219 -8.16990 30503 ft 447 kts 190°
2026-04-30 14:09 32.26128 -8.17492 30941 ft 450 kts 190°
2026-04-30 14:09 32.23018 -8.17996 31332 ft 453 kts 190°
2026-04-30 14:09 32.16720 -8.19017 32120 ft 459 kts 190°
2026-04-30 14:10 32.13519 -8.19344 32496 ft 464 kts 184°
2026-04-30 14:10 32.10268 -8.19252 32896 ft 470 kts 178°
2026-04-30 14:10 32.07015 -8.18751 33283 ft 474 kts 173°
2026-04-30 14:10 32.03786 -8.18127 33654 ft 477 kts 173°
2026-04-30 14:11 32.00494 -8.17509 34044 ft 480 kts 174°
2026-04-30 14:11 31.97183 -8.16897 34381 ft 483 kts 174°
2026-04-30 14:11 31.93854 -8.16284 34732 ft 485 kts 174°
2026-04-30 14:11 31.90512 -8.15669 35192 ft 485 kts 174°
2026-04-30 14:12 31.87166 -8.15053 35646 ft 485 kts 174°
2026-04-30 14:12 31.83834 -8.14441 36117 ft 485 kts 174°
2026-04-30 14:12 31.80493 -8.13827 36564 ft 484 kts 174°
2026-04-30 14:12 31.78282 -8.13421 36857 ft 485 kts 174°
2026-04-30 14:13 31.73833 -8.12604 37455 ft 484 kts 174°
2026-04-30 14:13 31.70498 -8.11993 37889 ft 484 kts 175°
2026-04-30 14:13 31.67173 -8.11388 38315 ft 484 kts 176°
2026-04-30 14:13 31.63871 -8.11031 38711 ft 480 kts 182°
2026-04-30 14:14 31.60539 -8.11060 39000 ft 479 kts 187°
2026-04-30 14:14 31.53989 -8.12242 39074 ft 472 kts 197°
2026-04-30 14:15 31.47571 -8.14038 39071 ft 475 kts 197°
2026-04-30 14:15 31.41123 -8.15794 39066 ft 475 kts 197°
2026-04-30 14:16 31.35770 -8.17246 39066 ft 476 kts 197°
2026-04-30 14:16 31.28270 -8.19280 39064 ft 476 kts 197°
2026-04-30 14:17 31.21816 -8.21028 39069 ft 476 kts 197°
2026-04-30 14:17 31.16448 -8.22481 39073 ft 477 kts 197°
2026-04-30 14:18 31.09965 -8.24232 39068 ft 477 kts 197°
2026-04-30 14:18 31.00239 -8.26857 39071 ft 478 kts 197°
2026-04-30 14:19 30.90517 -8.29473 39060 ft 478 kts 197°
2026-04-30 14:20 30.84022 -8.31218 39045 ft 478 kts 197°
2026-04-30 14:20 30.74288 -8.33829 39041 ft 480 kts 197°
2026-04-30 14:21 30.67827 -8.35560 39037 ft 480 kts 197°
2026-04-30 14:22 30.58056 -8.38172 39036 ft 481 kts 197°
2026-04-30 14:22 30.48265 -8.40799 39034 ft 482 kts 198°
2026-04-30 14:23 30.35174 -8.44307 39033 ft 483 kts 198°
2026-04-30 14:24 30.25349 -8.46933 39031 ft 483 kts 198°
2026-04-30 14:25 30.12271 -8.50420 39022 ft 483 kts 198°
2026-04-30 14:26 30.02479 -8.53024 39013 ft 484 kts 198°
2026-04-30 14:27 29.92629 -8.55638 38997 ft 484 kts 198°
2026-04-30 14:27 29.86057 -8.57379 38993 ft 485 kts 198°
2026-04-30 14:28 29.76167 -8.59997 38996 ft 487 kts 198°
2026-04-30 14:28 29.69563 -8.61742 38983 ft 487 kts 198°
2026-04-30 14:29 29.56306 -8.65230 38972 ft 489 kts 198°
2026-04-30 14:31 29.39722 -8.69591 38963 ft 491 kts 199°
2026-04-30 14:31 29.29723 -8.72210 38968 ft 490 kts 199°
2026-04-30 14:32 29.19727 -8.74826 38962 ft 490 kts 199°
2026-04-30 14:33 29.13062 -8.76565 38936 ft 491 kts 199°
2026-04-30 14:33 29.03100 -8.79163 38951 ft 492 kts 199°
2026-04-30 14:34 28.96383 -8.80910 38952 ft 492 kts 199°
2026-04-30 14:34 28.89745 -8.82632 38952 ft 492 kts 199°
2026-04-30 14:35 28.79716 -8.85232 38955 ft 493 kts 199°
2026-04-30 14:36 28.73019 -8.86966 38960 ft 493 kts 199°
2026-04-30 14:36 28.66321 -8.88697 38967 ft 493 kts 199°
2026-04-30 14:37 28.59621 -8.90426 38966 ft 494 kts 200°
2026-04-30 14:37 28.52918 -8.92154 38971 ft 494 kts 200°
2026-04-30 14:38 28.46221 -8.93878 38974 ft 494 kts 200°
2026-04-30 14:38 28.39511 -8.95604 38976 ft 494 kts 200°
2026-04-30 14:39 28.32845 -8.97315 38983 ft 495 kts 200°
2026-04-30 14:39 28.26118 -8.99040 38983 ft 495 kts 200°
2026-04-30 14:40 28.16041 -9.01621 38990 ft 495 kts 200°
2026-04-30 14:40 28.09323 -9.03337 38992 ft 495 kts 200°
2026-04-30 14:41 28.02603 -9.05053 38998 ft 495 kts 200°
2026-04-30 14:41 27.95884 -9.06766 38995 ft 495 kts 200°
2026-04-30 14:42 27.89205 -9.08467 39002 ft 495 kts 200°
2026-04-30 14:42 27.82495 -9.10173 39000 ft 494 kts 200°
2026-04-30 14:43 27.75781 -9.11879 38993 ft 494 kts 200°
2026-04-30 14:43 27.68896 -9.12892 38991 ft 511 kts 185°
2026-04-30 14:44 27.61828 -9.11366 38992 ft 531 kts 165°
2026-04-30 14:44 27.55116 -9.07710 38984 ft 537 kts 159°
2026-04-30 14:45 27.48422 -9.03943 38991 ft 537 kts 159°
2026-04-30 14:45 27.41733 -9.00197 38988 ft 537 kts 159°
2026-04-30 14:46 27.35051 -8.96459 38990 ft 537 kts 159°
2026-04-30 14:46 27.28363 -8.92721 38989 ft 536 kts 159°
2026-04-30 14:47 27.21686 -8.88993 38987 ft 536 kts 159°
2026-04-30 14:47 27.15005 -8.85269 38988 ft 535 kts 160°
2026-04-30 14:48 27.08374 -8.81578 38986 ft 535 kts 160°
2026-04-30 14:48 27.01706 -8.77870 38982 ft 534 kts 160°
2026-04-30 14:49 26.95039 -8.74169 38985 ft 534 kts 160°
2026-04-30 14:49 26.88379 -8.70476 38982 ft 533 kts 160°
2026-04-30 14:50 26.78438 -8.64973 38976 ft 532 kts 160°
2026-04-30 14:51 26.68479 -8.59471 38977 ft 532 kts 160°
2026-04-30 14:52 26.58521 -8.53980 38979 ft 531 kts 160°
2026-04-30 14:52 26.48580 -8.48510 38979 ft 531 kts 160°
2026-04-30 14:53 26.38655 -8.43058 38983 ft 529 kts 160°
2026-04-30 14:54 26.25545 -8.35873 38970 ft 527 kts 161°
2026-04-30 14:55 26.15685 -8.30481 38977 ft 525 kts 161°
2026-04-30 14:56 26.02584 -8.23334 38972 ft 523 kts 161°
2026-04-30 14:57 25.92797 -8.18005 38971 ft 521 kts 161°
2026-04-30 14:58 25.79803 -8.10946 38973 ft 518 kts 161°
2026-04-30 14:58 25.70093 -8.05683 38970 ft 516 kts 161°
2026-04-30 15:00 25.54015 -7.96988 38972 ft 512 kts 161°
2026-04-30 15:01 25.41280 -7.90120 38971 ft 509 kts 161°
2026-04-30 15:01 25.31750 -7.84990 38970 ft 506 kts 162°
2026-04-30 15:02 25.25426 -7.81592 38972 ft 505 kts 162°
2026-04-30 15:03 25.10745 -7.73716 38972 ft 501 kts 162°
2026-04-30 15:04 24.95139 -7.65370 38965 ft 497 kts 162°
2026-04-30 15:06 24.79649 -7.57107 38959 ft 492 kts 163°
2026-04-30 15:07 24.67340 -7.50558 38946 ft 490 kts 163°
2026-04-30 15:08 24.55120 -7.44071 38938 ft 488 kts 164°
2026-04-30 15:09 24.39861 -7.35990 38935 ft 486 kts 164°
2026-04-30 15:10 24.27674 -7.29552 38940 ft 486 kts 165°
2026-04-30 15:11 24.09422 -7.19936 38949 ft 486 kts 165°
2026-04-30 15:13 23.94179 -7.11927 38946 ft 485 kts 165°
2026-04-30 15:14 23.72918 -7.00792 38929 ft 484 kts 165°
2026-04-30 15:17 23.45592 -6.86545 38922 ft 485 kts 166°
2026-04-30 15:19 23.21196 -6.73883 38924 ft 486 kts 166°
2026-04-30 17:39 6.00087 -0.04290 5827 ft 279 kts 172°
2026-04-30 17:41 5.85363 -0.06442 2788 ft 244 kts 202°
2026-04-30 17:42 5.82395 -0.07671 2630 ft 221 kts 201°
2026-04-30 17:42 5.78644 -0.09225 2239 ft 153 kts 201°
2026-04-30 17:43 5.76847 -0.09966 2004 ft 137 kts 200°
2026-04-30 17:44 5.74131 -0.11090 1999 ft 142 kts 200°
2026-04-30 17:44 5.71434 -0.12207 2000 ft 140 kts 200°
2026-04-30 17:46 5.66927 -0.14072 1363 ft 137 kts 199°
2026-04-30 17:47 5.63411 -0.15525 678 ft 139 kts 199°
2026-04-30 17:48 5.59800 -0.17041 801 ft 158 kts 202°
2026-04-30 17:48 5.56410 -0.18756 3148 ft 213 kts 204°
2026-04-30 17:49 5.51001 -0.17806 4004 ft 204 kts 117°
2026-04-30 17:50 5.50088 -0.12357 3995 ft 199 kts 69°
2026-04-30 17:51 5.51940 -0.08609 4001 ft 201 kts 63°
2026-04-30 17:52 5.53814 -0.04862 4002 ft 200 kts 63°
2026-04-30 17:53 5.56907 0.01384 4002 ft 200 kts 64°
2026-04-30 17:54 5.61193 0.04697 4000 ft 202 kts 27°
2026-04-30 17:55 5.66239 0.07191 4308 ft 203 kts 27°
2026-04-30 17:56 5.71334 0.09538 4704 ft 202 kts 25°
2026-04-30 17:57 5.75167 0.08698 4704 ft 213 kts 319°
2026-04-30 17:58 5.78429 0.05654 4705 ft 213 kts 320°
2026-04-30 17:59 5.82747 0.01623 4699 ft 211 kts 320°
2026-04-30 18:00 5.82217 -0.03559 4700 ft 219 kts 229°
2026-04-30 18:00 5.79764 -0.06546 4681 ft 159 kts 231°
2026-04-30 18:01 5.78446 -0.08273 4169 ft 154 kts 233°
2026-04-30 18:02 5.76052 -0.10282 3095 ft 144 kts 202°
2026-04-30 18:02 5.73250 -0.11454 2599 ft 145 kts 200°
2026-04-30 18:03 5.70483 -0.12598 2050 ft 141 kts 200°
2026-04-30 18:04 5.67813 -0.13703 1522 ft 139 kts 200°
2026-04-30 18:05 5.64271 -0.15167 833 ft 136 kts 200°
2026-04-30 18:06 5.60847 -0.16569 210 ft 102 kts 201°
2026-04-30 18:07 5.59848 -0.17114 204 ft 0 kts 245°
2026-04-30 18:08 5.59834 -0.17146 203 ft 13 kts 245°
2026-04-30 18:09 5.59821 -0.17344 208 ft 0 kts 292°
2026-04-30 18:10 5.59823 -0.17351 208 ft 0 kts 293°
2026-04-30 18:11 5.59817 -0.17336 206 ft 0 kts 293°